GEFSGL_500_meanwind_204.txt.gz
Wind_Speed
16 16 16 16 16 15 14 13 13 12 11 11 11 11 11 11 10 10 10 10 10 10 11 11 12 12 12 12 13 12 13 13 14 14 13 13 13 13 14 14 14 15 16
17 16 15 15 15 15 15 14 14 13 12 12 12 11 11 11 11 11 10 10 10 11 11 12 12 13 13 13 13 13 13 13 14 14 14 14 14 14 14 15 15 16 16
16 15 15 14 14 14 14 14 14 13 12 12 11 11 11 11 11 11 11 10 11 11 12 12 12 13 13 14 14 14 14 15 15 15 14 14 14 15 15 15 16 17 18
16 16 15 14 14 14 15 14 14 14 13 13 12 12 12 12 12 12 11 11 12 13 13 13 13 14 14 14 14 14 15 15 15 15 15 15 15 16 16 17 18 19 20
17 16 16 15 15 14 14 14 14 14 14 14 13 13 13 13 13 12 12 12 12 13 13 13 14 14 14 14 14 14 15 15 16 16 17 17 17 18 18 19 20 21 22
17 17 17 16 15 15 15 14 14 14 14 14 14 14 14 14 14 14 14 13 13 13 13 14 14 14 14 14 14 15 15 16 17 17 18 19 20 20 21 22 23 23 24
17 17 17 17 16 16 16 15 15 14 14 14 14 14 15 15 14 14 14 13 13 14 14 14 14 14 14 14 15 15 16 16 17 18 19 20 21 22 23 24 25 25 26
18 18 18 17 17 17 16 15 15 15 14 14 14 14 14 15 14 14 15 14 14 14 15 15 15 14 15 16 17 17 18 18 19 20 21 22 23 24 25 26 26 27 28
18 18 18 18 18 17 16 16 15 15 15 15 14 15 15 15 15 14 14 14 14 15 15 15 16 16 16 17 18 19 19 20 21 22 23 24 26 27 27 28 29 29 30
18 18 18 18 18 18 17 17 16 16 16 16 16 16 16 16 16 16 16 16 16 16 16 16 16 17 18 18 19 20 21 22 23 24 25 27 27 28 29 30 31 31 31
18 18 18 17 17 17 17 17 17 17 17 17 17 17 17 17 17 17 16 16 17 16 17 17 18 18 19 20 21 22 23 23 24 26 27 28 29 30 31 32 33 33 34
18 18 17 16 16 16 17 17 17 17 17 17 17 17 17 16 16 17 17 17 17 17 18 18 19 19 20 21 22 23 23 25 26 27 28 29 30 31 31 32 32 33 35
18 18 18 17 17 17 17 17 17 17 17 17 17 17 17 17 17 17 17 17 18 19 19 19 20 21 22 23 24 24 25 26 27 28 30 31 31 31 32 33 33 34 35
17 17 18 18 18 18 17 17 17 17 17 17 17 17 17 18 18 18 18 19 19 20 21 21 22 23 24 24 25 25 26 27 28 29 30 31 32 32 33 34 35 36 37
17 17 17 17 17 18 18 18 18 18 18 17 17 18 18 19 19 20 20 20 21 22 22 23 24 24 25 25 26 27 27 28 29 31 31 32 33 34 34 36 37 38 39
17 17 17 17 17 18 18 19 19 19 19 19 18 19 19 20 21 21 22 22 23 23 24 24 25 25 26 26 27 28 29 30 31 32 32 33 34 35 36 37 38 39 40
17 17 17 18 18 18 19 19 20 20 20 20 20 20 21 21 22 23 23 24 24 25 26 26 27 27 28 28 28 29 30 31 32 32 33 34 36 37 38 39 40 40 40
18 18 18 18 19 19 19 20 20 20 21 22 22 22 23 23 23 24 25 25 26 27 27 28 28 29 29 29 30 31 31 32 33 34 35 36 37 39 40 41 41 40 41
19 19 19 19 20 20 20 21 21 22 22 23 23 24 24 24 24 25 26 26 27 27 28 29 29 30 30 31 32 33 33 34 35 36 37 38 39 40 41 41 41 42 42
19 20 20 20 20 21 21 22 23 23 23 24 24 24 24 24 25 25 26 26 27 27 28 29 29 30 31 32 33 34 35 36 37 38 39 39 40 41 41 41 42 43 43
21 21 21 21 21 22 23 23 24 24 24 24 24 24 25 25 25 26 26 27 28 29 29 30 31 32 33 33 34 35 36 37 37 38 39 40 41 41 42 42 43 43 44
21 22 22 22 22 22 23 23 24 25 25 25 25 24 25 26 27 27 27 28 30 30 31 32 32 33 34 35 36 36 37 37 38 39 40 41 41 42 42 43 43 44 44
22 22 23 23 23 23 24 23 24 24 25 25 25 26 26 26 27 28 28 29 30 31 32 32 33 34 35 36 37 37 38 38 39 40 41 42 42 42 43 43 43 44 44
23 23 23 23 23 24 24 24 24 25 25 25 26 26 26 27 28 29 30 30 31 31 32 33 34 35 36 37 37 38 39 39 40 41 42 42 43 43 43 44 44 44 44
24 24 24 24 24 24 24 25 25 25 26 26 26 27 28 28 29 30 31 31 32 33 33 34 35 35 36 37 38 39 40 40 41 42 43 43 43 44 44 45 45 45 44
24 24 24 24 24 24 25 25 26 26 27 26 27 27 28 29 30 30 31 32 33 33 34 35 35 36 37 38 39 40 41 41 42 43 43 43 43 44 45 45 45 44 44

GEFSGL_500_meanwind_210.txt.gz
Wind_Speed
14 14 14 14 14 13 13 12 12 12 12 12 11 11 11 11 10 10 10 10 11 11 10 10 10 11 12 12 12 12 13 13 14 14 14 14 14 13 13 14 15 15 16
14 14 14 14 14 13 13 13 13 12 12 12 11 10 9 9 9 9 10 10 10 10 10 10 11 11 12 12 12 12 13 13 13 13 13 13 13 13 14 15 16 17 18
15 15 14 14 14 13 14 13 13 13 13 12 12 11 11 11 11 11 10 10 9 10 10 10 11 11 11 12 12 12 12 13 13 13 14 14 14 15 15 16 17 18 19
15 15 14 14 14 13 14 14 14 14 13 12 13 12 12 12 12 11 11 10 10 10 11 11 11 11 12 13 13 13 13 13 14 14 14 15 16 16 16 17 18 19 20
16 15 15 15 15 14 14 14 13 13 13 13 13 13 13 12 11 11 12 12 12 12 12 12 12 12 13 14 14 14 14 14 15 15 15 16 16 17 18 19 20 20 21
16 16 15 15 15 15 15 14 14 14 13 13 13 14 14 13 12 12 12 12 13 13 13 13 13 13 14 14 15 14 15 15 16 16 17 17 17 18 19 20 21 22 23
16 16 16 16 16 16 15 15 15 14 14 14 14 14 15 15 14 14 13 13 13 13 13 14 14 14 15 15 15 16 16 17 17 18 18 19 20 21 22 23 24 25 26
16 16 16 17 17 16 16 16 15 15 15 15 15 15 15 15 15 14 14 14 14 14 14 15 16 16 16 16 17 17 19 19 19 20 21 22 22 23 24 25 26 27 28
17 16 16 17 17 17 16 16 16 16 16 17 15 15 15 15 15 14 15 15 15 15 16 16 17 17 17 18 19 19 20 20 21 21 22 23 24 25 26 27 28 29 29
17 16 17 17 17 17 17 17 17 17 18 17 16 15 15 15 15 15 16 16 16 16 17 17 17 17 18 19 19 20 21 21 22 22 24 25 26 27 28 29 29 30 30
16 17 17 18 18 18 18 18 18 18 18 17 17 17 16 16 16 16 16 16 17 18 18 18 18 19 19 19 20 21 22 23 23 24 25 26 26 28 29 30 30 30 31
17 17 17 17 18 18 18 17 17 18 18 18 17 17 17 17 17 17 17 17 18 19 20 20 20 20 20 21 22 22 23 24 24 25 25 26 27 28 30 30 31 31 32
17 17 17 17 17 18 18 17 17 17 17 18 18 18 18 18 18 18 19 19 20 21 21 21 21 21 22 22 23 24 25 25 24 25 26 27 29 30 30 31 32 33 34
17 17 17 17 17 17 18 17 17 17 17 18 18 19 19 19 19 20 20 20 21 21 21 21 21 22 23 23 24 25 25 25 26 26 27 28 29 30 31 32 33 34 35
17 17 17 17 17 18 18 18 18 18 17 18 18 19 19 19 20 21 21 21 22 22 22 23 23 24 24 24 25 26 26 27 27 28 29 30 31 32 32 33 34 35 35
17 17 17 18 18 19 19 19 19 19 19 19 19 19 19 19 20 21 21 22 22 23 23 23 24 24 25 26 26 27 28 28 29 30 31 31 32 33 34 35 36 36 37
18 17 17 18 18 19 19 19 19 19 20 20 20 20 20 20 20 21 22 23 24 24 24 24 25 26 26 27 28 28 29 30 30 31 32 33 34 34 35 36 37 38 38
18 18 19 19 19 19 19 19 20 21 21 20 20 20 21 21 22 22 23 24 25 25 25 26 27 27 27 28 29 30 30 31 32 33 34 35 35 36 36 37 38 39 40
17 18 18 19 19 20 20 21 21 21 21 21 21 22 22 23 24 24 25 25 26 26 27 27 27 28 28 29 30 31 32 33 34 35 35 36 36 37 38 38 39 40 41
19 19 19 19 19 20 21 21 22 22 23 23 23 23 23 24 25 26 26 27 27 28 28 28 28 28 29 30 31 32 33 34 35 35 36 36 36 37 38 39 40 41 42
21 20 20 20 20 20 20 21 22 22 23 23 23 24 25 25 25 26 26 27 28 29 29 28 28 29 30 32 33 34 34 35 36 36 36 37 37 38 39 40 41 42 43
22 21 21 21 21 21 21 21 22 22 22 23 24 25 25 25 26 26 27 27 28 29 29 29 29 31 32 33 34 35 36 36 36 37 37 38 38 39 40 41 42 43 44
22 22 22 22 22 22 23 23 23 23 23 24 25 25 25 25 26 26 27 27 28 28 29 30 31 33 34 34 35 36 36 37 37 38 38 39 39 40 40 42 43 44 44
23 23 23 23 23 23 23 23 23 23 24 24 25 25 26 27 27 27 28 28 28 29 30 31 32 33 34 35 35 36 37 37 38 38 39 39 40 41 42 42 43 44 44
24 24 24 23 23 23 23 23 24 24 24 25 25 26 26 27 28 28 28 28 29 30 31 32 33 33 34 34 35 36 37 37 38 39 39 40 41 42 42 43 44 44 44
25 25 25 25 25 25 24 24 25 25 26 26 27 27 27 28 28 28 29 29 30 31 32 33 33 34 34 34 35 36 37 38 38 39 40 41 42 43 43 43 44 44 44

GEFSGL_500_meanwind_216.txt.gz
Wind_Speed
15 15 15 14 15 15 15 16 15 14 14 14 13 13 13 13 12 12 13 13 13 12 12 11 11 10 10 10 10 10 10 10 10 11 11 11 11 12 12 13 13 14 15
15 15 15 15 16 16 15 16 15 14 14 14 14 13 13 12 12 13 13 13 12 13 12 11 10 9 10 10 10 10 10 10 11 11 11 11 12 12 13 14 14 15 16
15 16 16 16 16 16 15 15 15 14 15 15 15 14 13 13 13 13 12 12 11 12 11 10 9 10 11 11 11 11 11 12 12 12 12 12 13 14 14 15 16 17 18
16 17 17 17 16 16 15 15 15 15 15 15 15 14 13 13 13 13 12 11 11 11 11 11 10 10 11 11 11 11 12 13 13 13 14 14 15 15 16 17 18 19 19
16 17 17 17 16 16 15 16 15 15 15 14 14 14 13 13 13 13 12 12 11 11 11 11 11 11 11 12 12 13 13 14 14 15 15 15 16 16 18 19 20 20 21
16 16 16 16 17 17 17 16 16 16 16 15 15 14 13 14 14 13 12 12 12 12 12 12 12 12 13 13 14 15 15 15 16 16 16 16 17 18 19 20 21 22 23
16 16 16 16 15 16 17 16 16 16 16 15 14 14 14 14 14 14 14 14 14 14 14 14 13 14 14 15 15 16 16 17 17 17 17 18 19 20 21 22 22 23 23
16 16 16 15 15 15 16 16 16 16 16 15 15 15 14 14 15 15 15 15 15 15 15 15 15 16 16 16 17 17 17 18 18 18 19 20 21 22 23 23 23 24 25
16 17 17 16 15 16 15 16 17 17 16 16 16 16 15 16 16 17 17 17 17 17 16 16 17 17 18 18 18 19 19 19 20 20 21 21 22 23 24 24 24 25 26
16 16 17 17 17 16 16 17 17 17 17 17 16 17 17 17 17 18 18 18 18 18 18 18 18 19 19 19 20 20 20 21 21 21 21 22 23 24 24 25 25 26 26
16 16 17 17 17 17 17 18 18 18 18 17 17 18 18 19 18 19 19 19 19 19 19 19 19 19 20 20 21 21 21 22 23 23 23 24 24 25 26 26 27 27 28
16 16 16 17 17 17 17 17 17 17 18 19 19 19 19 20 19 19 19 19 20 20 20 20 20 20 20 20 20 21 21 23 24 24 24 25 25 26 27 28 28 29 29
17 17 16 16 17 18 18 18 17 17 18 18 19 19 19 19 20 20 20 20 20 20 20 21 20 20 20 21 22 22 23 23 24 24 25 25 26 27 28 29 29 30 31
17 18 17 17 17 17 18 18 17 17 17 18 18 18 18 19 19 19 20 19 19 19 19 20 20 21 21 22 23 24 23 23 24 25 26 27 28 29 30 30 31 32 33
17 18 18 18 18 18 18 17 17 17 17 17 17 18 18 18 19 20 20 20 20 20 20 20 20 21 22 23 23 24 24 25 25 26 27 28 29 30 31 32 33 34 34
17 17 17 18 18 18 18 17 17 17 17 17 17 17 17 18 19 20 20 20 20 21 21 21 21 22 23 24 24 25 25 25 27 28 28 29 30 31 32 34 34 35 35
17 17 17 17 17 17 17 17 18 18 18 17 17 17 18 18 18 19 19 20 20 21 21 22 23 24 24 25 25 25 26 27 28 29 30 31 32 33 34 35 35 35 36
18 18 18 18 18 18 18 18 18 18 18 18 18 18 19 19 20 20 20 20 21 22 23 24 25 25 26 26 26 27 27 28 29 31 32 32 33 34 35 35 36 37 38
18 18 19 19 19 19 19 18 18 19 19 19 20 20 21 21 22 22 21 22 22 23 24 25 26 27 27 27 28 28 29 30 31 32 32 33 34 35 36 36 37 38 39
19 19 20 20 20 20 20 20 20 20 21 21 22 22 22 23 23 23 24 24 24 25 26 26 27 28 28 28 29 29 30 31 31 32 33 33 34 35 36 37 38 39 40
20 20 20 21 21 21 21 21 21 21 22 22 22 22 23 23 24 25 25 26 27 27 27 28 28 29 29 29 29 30 31 32 33 33 34 34 36 37 37 38 39 40 41
22 22 22 23 23 22 22 23 22 22 22 22 23 23 23 24 25 25 26 27 28 28 28 29 29 29 29 30 31 31 32 34 34 34 34 35 36 37 38 39 39 40 41
24 24 23 24 24 24 24 23 22 22 22 23 23 23 24 24 25 26 27 28 29 29 28 28 28 29 30 31 31 31 33 34 35 35 35 36 37 38 39 39 40 41 42
25 24 24 24 24 24 23 23 23 23 23 23 23 23 24 25 26 26 27 28 28 28 28 29 29 30 30 30 31 32 33 34 34 35 36 37 38 39 39 40 40 41 42
25 24 24 24 24 23 23 23 23 23 23 23 23 24 25 25 25 26 26 27 27 28 29 29 29 29 30 31 31 32 33 33 34 35 37 38 38 39 40 40 41 41 42
25 24 24 24 24 24 24 24 24 24 24 24 24 25 25 25 26 26 26 27 27 27 28 28 29 30 31 31 31 32 33 34 36 36 37 38 39 39 40 40 41 41 42

GEFSGL_500_meanwind_222.txt.gz
Wind_Speed
16 16 16 16 15 16 16 16 16 16 16 16 16 15 15 15 16 16 15 15 15 15 14 14 14 13 13 13 12 12 13 13 13 13 13 13 13 13 14 14 14 15 16
17 17 16 16 16 16 16 17 17 17 17 16 15 14 15 15 15 15 15 15 14 13 13 13 13 12 12 12 12 13 13 13 13 13 13 13 13 14 14 15 15 16 17
16 16 16 17 16 16 16 16 16 17 16 16 14 14 14 14 14 14 14 13 13 13 13 13 13 13 13 13 13 14 14 14 14 14 13 14 14 15 15 16 16 17 19
17 17 17 17 17 16 16 16 16 16 16 15 15 14 14 15 15 14 14 13 12 12 12 13 13 13 13 13 13 13 14 14 14 14 15 15 16 16 17 17 18 19 19
17 17 16 16 17 16 16 16 16 16 16 15 15 15 16 16 15 14 14 13 13 13 13 13 13 13 13 13 13 14 14 14 15 15 16 16 17 17 18 18 19 20 20
16 16 16 16 16 16 16 15 15 16 16 15 15 15 15 15 15 15 15 14 13 13 13 13 13 14 14 14 15 15 16 16 16 16 17 17 17 18 18 19 20 21 21
15 16 16 16 15 15 15 15 15 15 15 15 16 16 15 15 15 15 15 14 14 14 14 14 14 14 15 15 16 16 16 16 17 17 18 18 18 19 19 20 21 22 22
15 15 15 15 15 15 15 15 15 15 15 16 16 16 16 16 17 16 16 15 15 14 14 15 15 16 17 17 17 17 17 17 18 19 20 20 21 21 21 21 21 21 22
14 14 15 15 15 15 15 15 15 15 16 16 16 16 17 17 17 17 16 16 16 16 16 17 17 17 18 18 18 18 19 19 20 20 20 21 22 21 21 21 22 23 24
14 14 14 15 15 15 15 15 16 16 16 16 16 17 17 17 17 17 17 18 18 18 18 19 18 19 19 18 19 19 20 21 21 21 21 21 22 21 22 23 24 25 26
14 15 15 15 14 14 15 15 16 16 16 16 17 17 18 18 18 18 18 19 18 18 19 19 19 19 19 19 19 19 20 21 21 21 22 22 22 22 23 24 26 27 27
15 15 15 14 14 14 14 14 15 16 15 16 16 17 17 18 19 19 18 18 19 19 19 19 19 19 19 19 19 20 21 21 22 22 23 23 23 24 25 26 27 28 28
16 16 15 14 14 14 15 15 15 16 16 16 17 17 18 18 19 19 19 19 19 19 20 20 19 19 18 19 20 21 21 22 23 24 24 24 25 25 26 27 28 28 29
16 16 16 15 15 16 16 16 16 16 16 17 17 17 18 19 19 19 19 19 19 19 19 19 19 19 19 20 21 21 22 23 24 25 25 26 27 27 27 27 28 29 30
17 17 17 17 17 17 17 17 17 17 17 18 18 18 18 18 18 18 18 18 18 19 19 19 19 19 20 21 22 23 23 24 25 26 27 27 27 27 27 28 29 30 31
17 17 18 18 18 18 18 18 18 18 18 18 18 18 18 18 18 18 18 18 19 19 19 19 20 21 22 23 23 24 25 26 26 27 27 28 27 28 29 30 31 32 33
18 18 18 18 18 18 19 19 19 19 19 18 18 18 18 18 18 18 19 19 19 19 20 20 21 22 23 24 24 25 26 27 27 28 28 29 29 30 31 32 33 34 34
19 18 18 19 19 19 20 20 20 20 20 19 19 19 19 20 20 20 20 20 20 21 22 23 23 24 24 24 25 26 27 28 29 29 30 30 30 31 32 33 33 35 35
20 20 20 20 20 21 21 21 21 21 21 20 20 21 21 21 21 21 21 21 21 22 23 24 24 25 26 26 27 27 28 28 29 30 31 31 32 32 33 34 34 35 37
21 21 21 21 21 21 20 21 21 21 22 22 22 22 23 23 22 22 22 22 23 23 24 24 25 26 27 27 28 28 28 29 30 30 31 32 32 33 33 34 35 36 37
23 23 23 23 23 22 22 22 22 23 23 24 24 24 24 24 24 24 23 23 23 24 25 25 26 26 27 27 28 29 29 30 31 31 31 32 33 34 35 35 35 36 37
25 25 25 25 25 26 25 25 24 24 24 25 25 25 25 25 25 25 25 25 25 25 26 26 27 28 28 28 29 29 29 30 31 31 32 33 33 34 34 35 36 37 38
26 26 26 26 26 27 26 26 25 24 24 25 25 25 25 25 25 25 25 25 26 27 28 28 28 28 29 29 29 29 30 30 30 31 32 32 33 34 34 35 37 38 39
26 26 26 26 26 26 26 25 25 25 25 25 25 25 25 25 25 26 26 27 27 28 29 28 28 28 28 29 29 30 30 31 31 31 32 33 34 35 36 36 38 38 39
27 26 26 27 27 27 27 26 25 25 25 25 25 26 26 25 25 26 27 27 27 28 28 28 28 28 29 30 30 30 30 31 31 32 33 34 34 35 36 36 37 38 39
27 27 27 27 27 27 27 26 26 26 26 26 26 26 27 26 26 27 27 27 28 28 27 27 28 28 29 29 29 30 30 31 31 32 33 34 35 36 36 37 37 38 39

GEFSGL_500_meanwind_228.txt.gz
Wind_Speed
16 16 15 15 16 16 16 16 16 16 16 16 17 16 15 16 15 15 15 15 15 14 14 14 14 14 13 13 13 13 14 14 13 13 14 13 14 14 14 15 15 15 15
16 16 16 16 16 16 17 17 17 17 17 17 17 17 16 16 15 15 15 15 15 14 14 14 15 15 14 14 14 14 14 13 13 13 13 13 13 14 15 15 16 16 16
16 16 16 16 15 15 16 16 16 17 17 16 17 17 16 16 16 16 15 15 15 15 14 14 14 14 14 14 13 13 13 13 13 13 12 13 13 14 15 15 16 17 18
16 15 16 16 16 16 15 16 16 16 16 16 16 16 16 17 17 16 16 15 15 14 14 13 13 14 13 13 13 13 12 12 13 13 13 13 13 14 15 16 17 18 19
16 16 15 15 16 16 16 16 15 15 15 16 17 16 16 16 16 16 16 15 15 14 14 14 14 13 14 13 13 12 12 12 13 13 14 14 15 16 17 17 18 19 19
16 16 15 15 15 15 16 16 15 15 16 16 16 16 16 16 16 16 16 15 15 15 15 15 14 14 14 14 13 13 13 14 14 14 15 15 16 16 17 18 19 20 20
16 16 16 15 15 15 15 15 16 16 15 15 16 15 16 16 16 16 16 15 15 15 15 15 14 14 14 14 14 14 14 15 15 16 16 16 16 16 18 19 20 21 22
16 15 15 16 16 16 15 14 14 15 15 15 15 15 15 16 16 16 16 16 16 16 16 16 15 14 14 15 15 15 15 15 16 16 16 16 17 18 19 20 20 21 22
15 14 15 15 14 14 14 14 14 15 15 15 14 14 15 15 16 16 16 16 16 16 16 16 15 15 15 16 16 15 15 16 16 17 17 18 18 19 20 20 21 22 23
14 14 14 14 14 14 14 14 14 14 14 14 14 14 14 15 16 16 16 16 16 16 16 15 15 15 16 16 16 16 16 16 17 17 18 19 19 20 20 21 22 23 24
14 14 14 14 14 14 14 14 14 14 14 14 14 14 14 15 16 16 17 17 17 16 16 16 16 17 17 16 16 16 16 17 17 18 19 19 20 20 21 22 23 24 25
15 14 14 15 15 15 15 14 14 14 14 14 14 14 15 16 16 17 17 17 17 17 17 17 17 18 18 17 18 18 18 18 19 19 20 20 21 22 22 23 25 26 26
15 15 15 16 16 15 15 15 15 14 14 14 14 15 15 16 16 16 17 17 17 17 18 18 19 19 18 19 19 19 19 19 20 21 21 22 23 23 24 25 26 27 27
16 16 16 17 17 17 16 16 15 15 15 16 15 15 15 16 16 17 17 18 18 19 20 20 20 20 19 19 20 20 20 20 21 22 23 24 24 25 26 27 27 27 28
18 17 17 18 18 18 17 17 17 17 17 17 16 16 16 16 17 18 19 19 19 20 20 20 20 19 19 20 20 21 22 22 23 23 24 24 25 26 27 27 27 28 29
18 18 18 18 18 19 18 18 18 18 18 18 18 18 18 18 18 18 19 20 20 20 20 20 20 20 20 21 21 22 23 24 24 25 25 26 26 27 27 28 29 29 30
19 19 19 19 19 19 19 19 19 19 19 20 20 20 20 20 20 20 20 21 21 21 21 21 21 22 22 22 23 23 23 24 25 26 27 27 27 28 28 29 30 31 31
21 20 20 20 20 21 20 20 21 21 22 22 22 21 22 22 22 21 21 21 21 22 22 22 23 23 24 24 25 24 24 25 27 27 27 27 27 29 29 30 31 31 31
23 22 22 21 21 21 21 22 22 22 23 24 24 24 23 24 23 23 23 22 22 23 23 24 24 25 25 26 26 26 26 26 27 27 28 29 29 30 30 31 31 31 31
24 24 23 23 22 22 22 23 23 24 24 25 25 25 25 25 24 24 24 24 25 25 25 25 25 26 27 27 27 27 28 28 28 28 28 29 29 30 30 30 30 31 31
25 25 24 24 25 25 25 25 25 25 26 26 26 26 26 26 26 26 26 26 26 26 26 26 27 27 28 28 28 28 29 28 28 28 29 29 29 30 29 29 30 31 31
26 26 25 25 25 25 25 25 25 25 25 26 26 26 27 27 28 28 28 28 27 27 27 27 27 28 28 29 29 29 28 28 28 28 28 28 29 29 29 29 30 31 31
27 27 26 26 26 26 25 25 25 26 26 26 26 27 27 27 28 28 27 27 27 27 27 27 28 28 28 28 29 29 28 28 28 28 28 28 29 30 30 30 30 30 31
28 28 27 27 27 27 27 27 27 26 26 26 27 27 27 27 27 27 26 26 27 27 27 27 28 28 28 28 28 28 28 28 28 28 29 28 29 29 30 30 30 31 31
29 29 29 28 28 28 28 28 28 27 27 27 27 27 27 27 27 27 26 26 26 27 27 28 28 29 28 28 28 28 28 28 29 29 29 29 29 29 29 30 30 31 32
30 30 30 30 30 30 29 29 29 29 29 29 29 28 28 28 27 27 27 27 27 28 28 28 28 29 28 28 28 28 28 28 28 28 29 29 29 29 29 30 31 32 33

GEFSGL_500_meanwind_234.txt.gz
Wind_Speed
15 15 16 16 16 15 15 15 15 15 16 16 16 15 15 16 16 15 15 16 16 16 16 16 16 15 15 15 15 15 15 15 15 15 15 15 15 15 16 16 16 15 16
15 16 16 17 16 16 16 16 16 15 16 16 16 15 15 16 16 16 15 16 16 16 16 17 16 16 15 15 15 15 15 15 15 15 14 15 15 16 16 17 16 16 16
16 16 16 17 17 17 17 17 17 17 17 16 16 16 16 16 16 16 16 16 16 16 17 17 16 16 15 15 16 16 15 15 14 14 14 15 16 16 16 16 16 17 17
16 16 16 17 17 17 17 17 17 17 16 16 16 16 16 16 17 17 16 16 16 16 16 16 15 16 16 15 15 15 15 15 15 15 15 15 15 16 16 16 17 17 17
16 16 15 16 16 16 17 17 16 16 16 16 16 16 17 17 17 17 16 16 16 16 16 15 15 16 16 15 15 15 14 15 15 16 16 15 15 15 16 17 17 18 18
15 16 16 15 16 16 16 15 15 16 16 16 16 16 16 17 17 17 16 15 14 15 15 15 16 16 16 16 16 16 15 16 16 16 16 16 16 16 17 17 17 18 19
16 16 15 15 16 16 15 15 15 15 15 16 16 16 16 17 16 16 16 17 16 16 16 16 16 16 17 17 17 17 17 16 16 16 16 16 16 17 17 18 19 20 20
17 17 16 16 15 14 14 14 15 16 16 16 16 16 16 16 16 16 17 17 17 16 16 17 17 17 17 16 16 16 15 16 16 16 17 17 17 18 18 19 20 21 22
17 17 16 15 15 14 14 14 15 16 16 16 16 15 16 16 15 16 16 16 16 17 17 17 17 17 17 16 16 16 16 16 17 17 17 17 18 19 19 20 21 22 22
17 17 16 16 16 15 14 14 15 16 16 15 15 15 16 16 16 16 16 16 16 17 17 17 16 17 17 17 18 17 17 17 18 18 18 18 19 20 21 22 22 22 22
16 16 17 17 16 15 15 15 15 16 16 15 15 15 15 15 15 15 16 16 16 16 17 17 17 17 18 18 17 17 17 18 19 18 19 19 20 21 22 23 23 23 24
17 17 17 17 17 17 17 16 16 16 15 16 16 16 15 15 15 16 17 17 17 17 17 18 18 19 18 18 18 18 18 19 19 20 20 20 21 22 23 23 23 24 25
18 18 18 19 19 19 18 18 17 17 17 17 17 18 17 17 16 17 17 17 18 18 18 18 19 19 19 19 19 19 20 20 20 21 21 22 23 23 24 24 25 26 27
19 19 19 20 20 20 20 20 19 19 19 19 19 19 19 18 18 18 18 18 18 18 19 19 19 20 19 19 20 20 21 21 22 22 23 24 24 25 25 26 27 27 27
20 20 20 21 20 20 21 21 21 21 21 21 21 20 20 20 20 20 20 20 20 20 20 20 19 20 20 21 21 22 23 23 24 24 25 25 26 27 27 28 28 28 28
22 21 21 21 21 21 21 21 21 22 22 22 22 22 21 22 22 22 22 22 22 21 21 21 21 21 21 22 23 24 24 25 25 25 26 27 27 28 29 29 29 29 28
22 22 22 22 21 21 22 22 22 22 23 23 23 23 23 23 23 23 23 23 23 23 23 23 23 23 23 23 24 24 25 26 26 27 27 28 28 28 29 30 30 30 30
24 23 23 23 23 23 23 23 23 23 23 24 24 25 25 25 24 24 24 25 25 25 25 25 25 24 24 25 26 26 26 27 27 27 28 28 28 29 29 29 30 30 31
25 25 24 24 24 25 25 25 24 24 24 25 26 26 26 26 26 26 26 26 26 25 25 25 25 25 25 26 26 27 27 27 27 28 28 28 28 29 29 30 30 30 30
26 26 26 26 26 26 26 26 26 26 26 26 26 27 27 28 28 28 28 27 26 26 26 26 26 26 26 27 27 27 27 27 27 27 28 28 28 29 30 30 30 30 30
27 27 28 28 27 27 28 28 27 27 27 27 27 27 28 28 29 29 28 28 27 27 27 27 27 27 28 28 28 27 27 27 27 28 28 28 28 29 29 29 30 30 31
28 28 29 29 29 29 29 28 28 28 28 28 28 28 28 28 28 28 28 28 28 29 29 29 29 29 29 29 30 29 27 27 27 27 28 28 28 29 29 29 30 31 31
29 29 29 29 30 30 29 29 28 28 29 28 28 28 28 28 28 28 28 29 29 29 30 30 31 31 30 29 29 28 27 27 27 27 28 28 28 28 29 30 31 31 31
30 30 30 30 30 30 30 30 30 30 30 30 29 29 29 29 29 29 29 30 30 30 31 31 31 30 30 29 28 27 27 27 27 28 28 29 29 30 30 30 31 31 31
31 31 30 30 30 30 30 30 30 31 31 31 31 30 29 30 30 31 31 31 31 31 31 31 30 29 29 28 28 28 28 28 28 28 28 29 29 30 31 31 31 31 30
31 31 31 31 31 31 30 30 30 31 31 31 31 31 31 31 31 31 32 31 31 31 31 31 30 29 29 28 28 29 28 28 28 28 28 28 29 30 30 30 30 30 30

GEFSGL_500_meanwind_240.txt.gz
Wind_Speed
14 14 14 14 14 14 14 14 14 15 15 14 14 15 14 15 14 13 13 13 14 14 14 14 14 13 14 14 15 15 15 15 15 14 14 14 14 15 16 15 15 15 15
14 14 14 14 14 14 14 14 15 15 16 16 15 15 15 15 15 14 14 14 14 14 13 13 13 13 14 14 15 14 14 14 14 13 13 13 13 14 14 15 15 15 15
14 14 14 14 14 14 14 15 15 16 16 16 15 15 15 15 15 15 15 15 15 14 13 13 14 14 15 15 15 15 15 14 14 14 14 15 14 14 14 15 15 16 16
15 15 15 15 15 15 15 15 16 16 17 16 16 15 15 15 16 15 16 16 15 15 15 14 15 15 15 16 16 16 15 15 15 15 15 15 14 14 15 16 17 17 17
16 16 16 16 16 15 15 16 15 15 15 15 16 16 16 16 17 16 16 16 16 16 16 15 15 15 15 16 16 16 16 16 16 15 15 15 14 15 16 17 17 18 19
17 17 16 16 16 16 16 16 16 16 16 16 16 16 16 16 16 16 17 17 17 16 16 16 16 16 16 16 16 16 16 16 15 15 15 15 15 16 16 17 17 18 18
17 17 17 17 17 17 17 16 16 16 16 16 16 16 16 16 16 16 16 16 16 16 16 16 16 17 17 17 17 17 16 16 16 17 16 16 16 16 17 17 17 18 18
17 16 17 17 18 17 17 16 16 17 17 17 16 15 16 16 16 16 16 16 16 16 15 16 16 16 16 16 16 16 16 16 16 16 17 17 17 17 17 18 18 18 19
17 17 17 18 18 18 17 16 16 16 16 16 16 16 17 16 16 16 16 16 16 16 17 17 16 16 16 16 16 17 16 16 16 17 17 17 17 17 18 18 18 18 19
17 17 18 18 19 18 18 17 17 17 17 16 17 16 16 17 16 16 16 16 16 17 17 17 17 17 17 17 17 16 16 16 17 17 18 18 18 18 19 19 19 20 21
17 17 18 18 19 19 18 18 18 17 17 17 17 16 16 16 16 16 16 16 17 17 18 17 17 17 17 17 17 17 17 17 17 18 19 19 19 20 20 20 21 21 22
18 18 18 19 19 20 20 19 19 18 18 17 17 17 17 17 18 18 18 18 18 18 18 18 18 17 18 18 18 18 18 18 19 19 19 19 20 20 21 21 22 22 23
19 20 20 20 20 20 20 21 20 20 20 19 19 19 19 19 19 19 19 19 20 19 19 19 19 19 19 19 20 19 19 19 20 20 21 21 21 21 22 22 23 24 24
21 21 21 21 22 21 21 22 22 21 21 21 21 20 20 20 20 21 20 20 21 21 21 20 19 20 20 20 21 21 20 20 21 21 21 22 23 23 23 23 24 25 26
22 22 22 22 23 23 23 22 22 23 23 22 22 22 22 21 21 22 22 22 22 22 22 21 21 21 21 21 21 21 22 22 22 22 23 23 23 24 25 25 26 27 27
23 23 23 23 23 24 24 24 24 24 24 24 23 24 23 23 23 23 23 24 24 24 24 23 23 23 22 23 23 23 23 23 23 23 24 24 24 25 26 26 27 28 28
25 25 24 24 24 24 24 24 24 24 25 25 25 25 25 25 25 25 25 25 25 25 25 24 24 24 24 25 25 25 24 24 24 24 25 25 25 25 26 27 28 28 29
26 26 26 25 25 24 24 24 24 24 25 25 26 25 25 26 26 26 26 26 26 25 25 25 25 25 26 26 26 26 25 25 25 26 26 26 25 25 26 27 28 29 29
27 27 27 27 26 26 26 26 26 26 26 26 26 26 26 27 27 27 27 27 27 27 27 26 26 26 26 26 27 26 26 26 26 26 26 26 26 26 27 28 29 29 29
27 28 29 28 28 27 27 27 27 27 27 28 28 28 28 28 28 28 28 28 28 28 28 28 28 27 27 27 27 27 27 27 27 27 27 26 26 27 27 29 30 30 29
27 28 28 29 28 28 28 28 28 28 28 28 29 29 29 28 28 28 28 28 28 28 28 28 29 29 29 29 29 29 28 28 28 28 28 27 27 28 28 29 29 29 29
28 27 28 28 28 28 27 27 28 28 29 29 29 29 30 30 29 29 29 28 29 29 30 29 29 29 29 29 29 30 29 29 29 29 28 28 28 29 29 29 29 29 29
27 27 28 28 28 27 27 27 28 29 30 30 30 30 30 30 30 30 29 29 30 31 31 31 31 30 30 30 29 29 29 29 29 30 30 30 30 30 30 30 30 30 30
27 28 28 28 28 28 28 28 29 29 30 31 31 31 30 30 30 30 30 30 30 31 31 31 31 30 30 29 29 30 31 31 31 31 31 31 30 30 30 30 30 30 30
28 28 28 29 29 29 29 29 29 29 30 30 30 30 30 30 30 29 29 30 30 30 30 30 30 31 31 30 30 30 31 31 31 31 31 31 31 31 31 31 31 31 30
29 29 29 29 29 30 30 29 29 30 30 30 30 31 31 30 30 30 30 30 30 29 29 29 30 30 31 31 31 31 31 31 31 31 31 31 31 31 31 31 31 31 30